Location: Newark
(48.9233°N, 29.3439°E)
Time: 15:26:03
(UTC+00:00)

Envisat - Pass Details

Date: 28 September 2019
Orbit: 764 x 766 km, 98.1° (Epoch: 17 October)

Event Time Altitude Azimuth Distance (km) Brightness Sun altitude
Rises 17:47:50 0° 223° (SW) 3,224 6.5 -20.0°
Reaches altitude 10° 17:51:56 10° 256° (WSW) 2,305 6.2 -20.7°
Maximum altitude 17:53:36 12° 275° (W) 2,203 6.4 -20.9°
Drops below altitude 10° 17:55:16 10° 295° (WNW) 2,310 6.7 -21.2°
Sets 17:59:25 0° 328° (NNW) 3,244 7.1 -21.8°
